﻿_id,日時,10分間移動積算雨量(mm),1時間移動積算雨量(mm),日雨量(mm),累計雨量(mm)
1,2022-08-08T00:00:00,0,0,1,4
2,2022-08-08T00:01:00,0,0,0,4
3,2022-08-08T00:02:00,0,0,0,4
4,2022-08-08T00:03:00,0,0,0,4
5,2022-08-08T00:04:00,0,0,0,4
6,2022-08-08T00:05:00,0,0,0,4
7,2022-08-08T00:06:00,0,0,0,4
8,2022-08-08T00:07:00,0,0,0,4
9,2022-08-08T00:08:00,0,0,0,4
10,2022-08-08T00:09:00,0,0,0,4
11,2022-08-08T00:10:00,0,0,0,4
12,2022-08-08T00:11:00,0,0,0,4
13,2022-08-08T00:12:00,0,0,0,4
14,2022-08-08T00:13:00,0,0,0,4
15,2022-08-08T00:14:00,0,0,0,4
16,2022-08-08T00:15:00,0,0,0,4
17,2022-08-08T00:16:00,0,0,0,4
18,2022-08-08T00:17:00,0,0,0,4
19,2022-08-08T00:18:00,0,0,0,4
20,2022-08-08T00:19:00,0,0,0,4
21,2022-08-08T00:20:00,0,0,0,4
22,2022-08-08T00:21:00,0,0,0,4
23,2022-08-08T00:22:00,0,0,0,4
24,2022-08-08T00:23:00,0,0,0,4
25,2022-08-08T00:24:00,0,0,0,4
26,2022-08-08T00:25:00,0,0,0,4
27,2022-08-08T00:26:00,0,0,0,4
28,2022-08-08T00:27:00,0,0,0,4
29,2022-08-08T00:28:00,0,0,0,4
30,2022-08-08T00:29:00,0,0,0,4
31,2022-08-08T00:30:00,0,0,0,4
32,2022-08-08T00:31:00,0,0,0,4
33,2022-08-08T00:32:00,0,0,0,4
34,2022-08-08T00:33:00,0,0,0,4
35,2022-08-08T00:34:00,0,0,0,4
36,2022-08-08T00:35:00,0,0,0,4
37,2022-08-08T00:36:00,0,0,0,4
38,2022-08-08T00:37:00,0,0,0,4
39,2022-08-08T00:38:00,0,0,0,4
40,2022-08-08T00:39:00,0,0,0,4
41,2022-08-08T00:40:00,0,0,0,4
42,2022-08-08T00:41:00,0,0,0,4
43,2022-08-08T00:42:00,0,0,0,4
44,2022-08-08T00:43:00,0,0,0,4
45,2022-08-08T00:44:00,0,0,0,4
46,2022-08-08T00:45:00,0,0,0,4
47,2022-08-08T00:46:00,0,0,0,4
48,2022-08-08T00:47:00,0,0,0,4
49,2022-08-08T00:48:00,0,0,0,4
50,2022-08-08T00:49:00,0,0,0,4
51,2022-08-08T00:50:00,0,0,0,4
52,2022-08-08T00:51:00,0,0,0,4
53,2022-08-08T00:52:00,0,0,0,4
54,2022-08-08T00:53:00,0,0,0,4
55,2022-08-08T00:54:00,0,0,0,4
56,2022-08-08T00:55:00,0,0,0,4
57,2022-08-08T00:56:00,0,0,0,4
58,2022-08-08T00:57:00,0,0,0,4
59,2022-08-08T00:58:00,0,0,0,4
60,2022-08-08T00:59:00,0,0,0,4
61,2022-08-08T01:00:00,0,0,0,4
62,2022-08-08T01:01:00,0,0,0,4
63,2022-08-08T01:02:00,0,0,0,4
64,2022-08-08T01:03:00,0,0,0,4
65,2022-08-08T01:04:00,0,0,0,4
66,2022-08-08T01:05:00,0,0,0,4
67,2022-08-08T01:06:00,0,0,0,0
68,2022-08-08T01:07:00,0,0,0,0
69,2022-08-08T01:08:00,0,0,0,0
70,2022-08-08T01:09:00,0,0,0,0
71,2022-08-08T01:10:00,0,0,0,0
72,2022-08-08T01:11:00,0,0,0,0
73,2022-08-08T01:12:00,0,0,0,0
74,2022-08-08T01:13:00,0,0,0,0
75,2022-08-08T01:14:00,0,0,0,0
76,2022-08-08T01:15:00,0,0,0,0
77,2022-08-08T01:16:00,0,0,0,0
78,2022-08-08T01:17:00,0,0,0,0
79,2022-08-08T01:18:00,0,0,0,0
80,2022-08-08T01:19:00,0,0,0,0
81,2022-08-08T01:20:00,0,0,0,0
82,2022-08-08T01:21:00,0,0,0,0
83,2022-08-08T01:22:00,0,0,0,0
84,2022-08-08T01:23:00,0,0,0,0
85,2022-08-08T01:24:00,0,0,0,0
86,2022-08-08T01:25:00,0,0,0,0
87,2022-08-08T01:26:00,0,0,0,0
88,2022-08-08T01:27:00,0,0,0,0
89,2022-08-08T01:28:00,0,0,0,0
90,2022-08-08T01:29:00,0,0,0,0
91,2022-08-08T01:30:00,0,0,0,0
92,2022-08-08T01:31:00,0,0,0,0
93,2022-08-08T01:32:00,0,0,0,0
94,2022-08-08T01:33:00,0,0,0,0
95,2022-08-08T01:34:00,0,0,0,0
96,2022-08-08T01:35:00,0,0,0,0
97,2022-08-08T01:36:00,0,0,0,0
98,2022-08-08T01:37:00,0,0,0,0
99,2022-08-08T01:38:00,0,0,0,0
100,2022-08-08T01:39:00,0,0,0,0
101,2022-08-08T01:40:00,0,0,0,0
102,2022-08-08T01:41:00,0,0,0,0
103,2022-08-08T01:42:00,0,0,0,0
104,2022-08-08T01:43:00,0,0,0,0
105,2022-08-08T01:44:00,0,0,0,0
106,2022-08-08T01:45:00,0,0,0,0
107,2022-08-08T01:46:00,0,0,0,0
108,2022-08-08T01:47:00,0,0,0,0
109,2022-08-08T01:48:00,0,0,0,0
110,2022-08-08T01:49:00,0,0,0,0
111,2022-08-08T01:50:00,0,0,0,0
112,2022-08-08T01:51:00,0,0,0,0
113,2022-08-08T01:52:00,0,0,0,0
114,2022-08-08T01:53:00,0,0,0,0
115,2022-08-08T01:54:00,0,0,0,0
116,2022-08-08T01:55:00,0,0,0,0
117,2022-08-08T01:56:00,0,0,0,0
118,2022-08-08T01:57:00,0,0,0,0
119,2022-08-08T01:58:00,0,0,0,0
120,2022-08-08T01:59:00,0,0,0,0
121,2022-08-08T02:00:00,0,0,0,0
122,2022-08-08T02:01:00,0,0,0,0
123,2022-08-08T02:02:00,0,0,0,0
124,2022-08-08T02:03:00,0,0,0,0
125,2022-08-08T02:04:00,0,0,0,0
126,2022-08-08T02:05:00,0,0,0,0
127,2022-08-08T02:06:00,0,0,0,0
128,2022-08-08T02:07:00,0,0,0,0
129,2022-08-08T02:08:00,0,0,0,0
130,2022-08-08T02:09:00,0,0,0,0
131,2022-08-08T02:10:00,0,0,0,0
132,2022-08-08T02:11:00,0,0,0,0
133,2022-08-08T02:12:00,0,0,0,0
134,2022-08-08T02:13:00,0,0,0,0
135,2022-08-08T02:14:00,0,0,0,0
136,2022-08-08T02:15:00,0,0,0,0
137,2022-08-08T02:16:00,0,0,0,0
138,2022-08-08T02:17:00,0,0,0,0
139,2022-08-08T02:18:00,0,0,0,0
140,2022-08-08T02:19:00,0,0,0,0
141,2022-08-08T02:20:00,0,0,0,0
142,2022-08-08T02:21:00,0,0,0,0
143,2022-08-08T02:22:00,0,0,0,0
144,2022-08-08T02:23:00,0,0,0,0
145,2022-08-08T02:24:00,0,0,0,0
146,2022-08-08T02:25:00,0,0,0,0
147,2022-08-08T02:26:00,0,0,0,0
148,2022-08-08T02:27:00,0,0,0,0
149,2022-08-08T02:28:00,0,0,0,0
150,2022-08-08T02:29:00,0,0,0,0
151,2022-08-08T02:30:00,0,0,0,0
152,2022-08-08T02:31:00,0,0,0,0
153,2022-08-08T02:32:00,0,0,0,0
154,2022-08-08T02:33:00,0,0,0,0
155,2022-08-08T02:34:00,0,0,0,0
156,2022-08-08T02:35:00,0,0,0,0
157,2022-08-08T02:36:00,0,0,0,0
158,2022-08-08T02:37:00,0,0,0,0
159,2022-08-08T02:38:00,0,0,0,0
160,2022-08-08T02:39:00,0,0,0,0
161,2022-08-08T02:40:00,0,0,0,0
162,2022-08-08T02:41:00,0,0,0,0
163,2022-08-08T02:42:00,0,0,0,0
164,2022-08-08T02:43:00,0,0,0,0
165,2022-08-08T02:44:00,0,0,0,0
166,2022-08-08T02:45:00,0,0,0,0
167,2022-08-08T02:46:00,0,0,0,0
168,2022-08-08T02:47:00,0,0,0,0
169,2022-08-08T02:48:00,0,0,0,0
170,2022-08-08T02:49:00,0,0,0,0
171,2022-08-08T02:50:00,0,0,0,0
172,2022-08-08T02:51:00,0,0,0,0
173,2022-08-08T02:52:00,0,0,0,0
174,2022-08-08T02:53:00,0,0,0,0
175,2022-08-08T02:54:00,0,0,0,0
176,2022-08-08T02:55:00,0,0,0,0
177,2022-08-08T02:56:00,0,0,0,0
178,2022-08-08T02:57:00,0,0,0,0
179,2022-08-08T02:58:00,0,0,0,0
180,2022-08-08T02:59:00,0,0,0,0
181,2022-08-08T03:00:00,0,0,0,0
182,2022-08-08T03:01:00,0,0,0,0
183,2022-08-08T03:02:00,0,0,0,0
184,2022-08-08T03:03:00,0,0,0,0
185,2022-08-08T03:04:00,0,0,0,0
186,2022-08-08T03:05:00,0,0,0,0
187,2022-08-08T03:06:00,0,0,0,0
188,2022-08-08T03:07:00,0,0,0,0
189,2022-08-08T03:08:00,0,0,0,0
190,2022-08-08T03:09:00,0,0,0,0
191,2022-08-08T03:10:00,0,0,0,0
192,2022-08-08T03:11:00,0,0,0,0
193,2022-08-08T03:12:00,0,0,0,0
194,2022-08-08T03:13:00,0,0,0,0
195,2022-08-08T03:14:00,0,0,0,0
196,2022-08-08T03:15:00,0,0,0,0
197,2022-08-08T03:16:00,0,0,0,0
198,2022-08-08T03:17:00,0,0,0,0
199,2022-08-08T03:18:00,0,0,0,0
200,2022-08-08T03:19:00,0,0,0,0
201,2022-08-08T03:20:00,0,0,0,0
202,2022-08-08T03:21:00,0,0,0,0
203,2022-08-08T03:22:00,0,0,0,0
204,2022-08-08T03:23:00,0,0,0,0
205,2022-08-08T03:24:00,0,0,0,0
206,2022-08-08T03:25:00,0,0,0,0
207,2022-08-08T03:26:00,0,0,0,0
208,2022-08-08T03:27:00,0,0,0,0
209,2022-08-08T03:28:00,0,0,0,0
210,2022-08-08T03:29:00,0,0,0,0
211,2022-08-08T03:30:00,0,0,0,0
212,2022-08-08T03:31:00,0,0,0,0
213,2022-08-08T03:32:00,0,0,0,0
214,2022-08-08T03:33:00,0,0,0,0
215,2022-08-08T03:34:00,0,0,0,0
216,2022-08-08T03:35:00,0,0,0,0
217,2022-08-08T03:36:00,0,0,0,0
218,2022-08-08T03:37:00,0,0,0,0
219,2022-08-08T03:38:00,0,0,0,0
220,2022-08-08T03:39:00,0,0,0,0
221,2022-08-08T03:40:00,0,0,0,0
222,2022-08-08T03:41:00,0,0,0,0
223,2022-08-08T03:42:00,0,0,0,0
224,2022-08-08T03:43:00,0,0,0,0
225,2022-08-08T03:44:00,0,0,0,0
226,2022-08-08T03:45:00,0,0,0,0
227,2022-08-08T03:46:00,0,0,0,0
228,2022-08-08T03:47:00,0,0,0,0
229,2022-08-08T03:48:00,0,0,0,0
230,2022-08-08T03:49:00,0,0,0,0
231,2022-08-08T03:50:00,0,0,0,0
232,2022-08-08T03:51:00,0,0,0,0
233,2022-08-08T03:52:00,0,0,0,0
234,2022-08-08T03:53:00,0,0,0,0
235,2022-08-08T03:54:00,0,0,0,0
236,2022-08-08T03:55:00,0,0,0,0
237,2022-08-08T03:56:00,0,0,0,0
238,2022-08-08T03:57:00,0,0,0,0
239,2022-08-08T03:58:00,0,0,0,0
240,2022-08-08T03:59:00,0,0,0,0
241,2022-08-08T04:00:00,0,0,0,0
242,2022-08-08T04:01:00,0,0,0,0
243,2022-08-08T04:02:00,0,0,0,0
244,2022-08-08T04:03:00,0,0,0,0
245,2022-08-08T04:04:00,0,0,0,0
246,2022-08-08T04:05:00,0,0,0,0
247,2022-08-08T04:06:00,0,0,0,0
248,2022-08-08T04:07:00,0,0,0,0
249,2022-08-08T04:08:00,0,0,0,0
250,2022-08-08T04:09:00,0,0,0,0
251,2022-08-08T04:10:00,0,0,0,0
252,2022-08-08T04:11:00,0,0,0,0
253,2022-08-08T04:12:00,0,0,0,0
254,2022-08-08T04:13:00,0,0,0,0
255,2022-08-08T04:14:00,0,0,0,0
256,2022-08-08T04:15:00,0,0,0,0
257,2022-08-08T04:16:00,0,0,0,0
258,2022-08-08T04:17:00,0,0,0,0
259,2022-08-08T04:18:00,0,0,0,0
260,2022-08-08T04:19:00,0,0,0,0
261,2022-08-08T04:20:00,0,0,0,0
262,2022-08-08T04:21:00,0,0,0,0
263,2022-08-08T04:22:00,0,0,0,0
264,2022-08-08T04:23:00,0,0,0,0
265,2022-08-08T04:24:00,0,0,0,0
266,2022-08-08T04:25:00,0,0,0,0
267,2022-08-08T04:26:00,0,0,0,0
268,2022-08-08T04:27:00,0,0,0,0
269,2022-08-08T04:28:00,0,0,0,0
270,2022-08-08T04:29:00,0,0,0,0
271,2022-08-08T04:30:00,0,0,0,0
272,2022-08-08T04:31:00,0,0,0,0
273,2022-08-08T04:32:00,0,0,0,0
274,2022-08-08T04:33:00,0,0,0,0
275,2022-08-08T04:34:00,0,0,0,0
276,2022-08-08T04:35:00,0,0,0,0
277,2022-08-08T04:36:00,0,0,0,0
278,2022-08-08T04:37:00,0,0,0,0
279,2022-08-08T04:38:00,0,0,0,0
280,2022-08-08T04:39:00,0,0,0,0
281,2022-08-08T04:40:00,0,0,0,0
282,2022-08-08T04:41:00,0,0,0,0
283,2022-08-08T04:42:00,0,0,0,0
284,2022-08-08T04:43:00,0,0,0,0
285,2022-08-08T04:44:00,0,0,0,0
286,2022-08-08T04:45:00,0,0,0,0
287,2022-08-08T04:46:00,0,0,0,0
288,2022-08-08T04:47:00,0,0,0,0
289,2022-08-08T04:48:00,0,0,0,0
290,2022-08-08T04:49:00,0,0,0,0
291,2022-08-08T04:50:00,0,0,0,0
292,2022-08-08T04:51:00,0,0,0,0
293,2022-08-08T04:52:00,0,0,0,0
294,2022-08-08T04:53:00,0,0,0,0
295,2022-08-08T04:54:00,0,0,0,0
296,2022-08-08T04:55:00,0,0,0,0
297,2022-08-08T04:56:00,0,0,0,0
298,2022-08-08T04:57:00,0,0,0,0
299,2022-08-08T04:58:00,0,0,0,0
300,2022-08-08T04:59:00,0,0,0,0
301,2022-08-08T05:00:00,0,0,0,0
302,2022-08-08T05:01:00,0,0,0,0
303,2022-08-08T05:02:00,0,0,0,0
304,2022-08-08T05:03:00,0,0,0,0
305,2022-08-08T05:04:00,0,0,0,0
306,2022-08-08T05:05:00,0,0,0,0
307,2022-08-08T05:06:00,0,0,0,0
308,2022-08-08T05:07:00,0,0,0,0
309,2022-08-08T05:08:00,0,0,0,0
310,2022-08-08T05:09:00,0,0,0,0
311,2022-08-08T05:10:00,0,0,0,0
312,2022-08-08T05:11:00,0,0,0,0
313,2022-08-08T05:12:00,0,0,0,0
314,2022-08-08T05:13:00,0,0,0,0
315,2022-08-08T05:14:00,0,0,0,0
316,2022-08-08T05:15:00,0,0,0,0
317,2022-08-08T05:16:00,0,0,0,0
318,2022-08-08T05:17:00,0,0,0,0
319,2022-08-08T05:18:00,0,0,0,0
320,2022-08-08T05:19:00,0,0,0,0
321,2022-08-08T05:20:00,0,0,0,0
322,2022-08-08T05:21:00,0,0,0,0
323,2022-08-08T05:22:00,0,0,0,0
324,2022-08-08T05:23:00,0,0,0,0
325,2022-08-08T05:24:00,0,0,0,0
326,2022-08-08T05:25:00,0,0,0,0
327,2022-08-08T05:26:00,0,0,0,0
328,2022-08-08T05:27:00,0,0,0,0
329,2022-08-08T05:28:00,0,0,0,0
330,2022-08-08T05:29:00,0,0,0,0
331,2022-08-08T05:30:00,0,0,0,0
332,2022-08-08T05:31:00,0,0,0,0
333,2022-08-08T05:32:00,0,0,0,0
334,2022-08-08T05:33:00,0,0,0,0
335,2022-08-08T05:34:00,0,0,0,0
336,2022-08-08T05:35:00,0,0,0,0
337,2022-08-08T05:36:00,0,0,0,0
338,2022-08-08T05:37:00,0,0,0,0
339,2022-08-08T05:38:00,0,0,0,0
340,2022-08-08T05:39:00,0,0,0,0
341,2022-08-08T05:40:00,0,0,0,0
342,2022-08-08T05:41:00,0,0,0,0
343,2022-08-08T05:42:00,0,0,0,0
344,2022-08-08T05:43:00,0,0,0,0
345,2022-08-08T05:44:00,0,0,0,0
346,2022-08-08T05:45:00,0,0,0,0
347,2022-08-08T05:46:00,0,0,0,0
348,2022-08-08T05:47:00,0,0,0,0
349,2022-08-08T05:48:00,0,0,0,0
350,2022-08-08T05:49:00,0,0,0,0
351,2022-08-08T05:50:00,0,0,0,0
352,2022-08-08T05:51:00,0,0,0,0
353,2022-08-08T05:52:00,0,0,0,0
354,2022-08-08T05:53:00,0,0,0,0
355,2022-08-08T05:54:00,0,0,0,0
356,2022-08-08T05:55:00,0,0,0,0
357,2022-08-08T05:56:00,0,0,0,0
358,2022-08-08T05:57:00,0,0,0,0
359,2022-08-08T05:58:00,0,0,0,0
360,2022-08-08T05:59:00,0,0,0,0
361,2022-08-08T06:00:00,0,0,0,0
362,2022-08-08T06:01:00,0,0,0,0
363,2022-08-08T06:02:00,0,0,0,0
364,2022-08-08T06:03:00,0,0,0,0
365,2022-08-08T06:04:00,0,0,0,0
366,2022-08-08T06:05:00,0,0,0,0
367,2022-08-08T06:06:00,0,0,0,0
368,2022-08-08T06:07:00,0,0,0,0
369,2022-08-08T06:08:00,0,0,0,0
370,2022-08-08T06:09:00,0,0,0,0
371,2022-08-08T06:10:00,0,0,0,0
372,2022-08-08T06:11:00,0,0,0,0
373,2022-08-08T06:12:00,0,0,0,0
374,2022-08-08T06:13:00,0,0,0,0
375,2022-08-08T06:14:00,0,0,0,0
376,2022-08-08T06:15:00,0,0,0,0
377,2022-08-08T06:16:00,0,0,0,0
378,2022-08-08T06:17:00,0,0,0,0
379,2022-08-08T06:18:00,0,0,0,0
380,2022-08-08T06:19:00,0,0,0,0
381,2022-08-08T06:20:00,0,0,0,0
382,2022-08-08T06:21:00,0,0,0,0
383,2022-08-08T06:22:00,0,0,0,0
384,2022-08-08T06:23:00,0,0,0,0
385,2022-08-08T06:24:00,0,0,0,0
386,2022-08-08T06:25:00,0,0,0,0
387,2022-08-08T06:26:00,0,0,0,0
388,2022-08-08T06:27:00,0,0,0,0
389,2022-08-08T06:28:00,0,0,0,0
390,2022-08-08T06:29:00,0,0,0,0
391,2022-08-08T06:30:00,0,0,0,0
392,2022-08-08T06:31:00,0,0,0,0
393,2022-08-08T06:32:00,0,0,0,0
394,2022-08-08T06:33:00,0,0,0,0
395,2022-08-08T06:34:00,0,0,0,0
396,2022-08-08T06:35:00,0,0,0,0
397,2022-08-08T06:36:00,0,0,0,0
398,2022-08-08T06:37:00,0,0,0,0
399,2022-08-08T06:38:00,0,0,0,0
400,2022-08-08T06:39:00,0,0,0,0
401,2022-08-08T06:40:00,0,0,0,0
402,2022-08-08T06:41:00,0,0,0,0
403,2022-08-08T06:42:00,0,0,0,0
404,2022-08-08T06:43:00,0,0,0,0
405,2022-08-08T06:44:00,0,0,0,0
406,2022-08-08T06:45:00,0,0,0,0
407,2022-08-08T06:46:00,0,0,0,0
408,2022-08-08T06:47:00,0,0,0,0
409,2022-08-08T06:48:00,0,0,0,0
410,2022-08-08T06:49:00,0,0,0,0
411,2022-08-08T06:50:00,0,0,0,0
412,2022-08-08T06:51:00,0,0,0,0
413,2022-08-08T06:52:00,0,0,0,0
414,2022-08-08T06:53:00,0,0,0,0
415,2022-08-08T06:54:00,0,0,0,0
416,2022-08-08T06:55:00,0,0,0,0
417,2022-08-08T06:56:00,0,0,0,0
418,2022-08-08T06:57:00,0,0,0,0
419,2022-08-08T06:58:00,0,0,0,0
420,2022-08-08T06:59:00,0,0,0,0
421,2022-08-08T07:00:00,0,0,0,0
422,2022-08-08T07:01:00,0,0,0,0
423,2022-08-08T07:02:00,0,0,0,0
424,2022-08-08T07:03:00,0,0,0,0
425,2022-08-08T07:04:00,0,0,0,0
426,2022-08-08T07:05:00,0,0,0,0
427,2022-08-08T07:06:00,0,0,0,0
428,2022-08-08T07:07:00,0,0,0,0
429,2022-08-08T07:08:00,0,0,0,0
430,2022-08-08T07:09:00,0,0,0,0
431,2022-08-08T07:10:00,0,0,0,0
432,2022-08-08T07:11:00,0,0,0,0
433,2022-08-08T07:12:00,0,0,0,0
434,2022-08-08T07:13:00,0,0,0,0
435,2022-08-08T07:14:00,0,0,0,0
436,2022-08-08T07:15:00,0,0,0,0
437,2022-08-08T07:16:00,0,0,0,0
438,2022-08-08T07:17:00,0,0,0,0
439,2022-08-08T07:18:00,0,0,0,0
440,2022-08-08T07:19:00,0,0,0,0
441,2022-08-08T07:20:00,0,0,0,0
442,2022-08-08T07:21:00,0,0,0,0
443,2022-08-08T07:22:00,0,0,0,0
444,2022-08-08T07:23:00,0,0,0,0
445,2022-08-08T07:24:00,0,0,0,0
446,2022-08-08T07:25:00,0,0,0,0
447,2022-08-08T07:26:00,0,0,0,0
448,2022-08-08T07:27:00,0,0,0,0
449,2022-08-08T07:28:00,0,0,0,0
450,2022-08-08T07:29:00,0,0,0,0
451,2022-08-08T07:30:00,0,0,0,0
452,2022-08-08T07:31:00,0,0,0,0
453,2022-08-08T07:32:00,0,0,0,0
454,2022-08-08T07:33:00,0,0,0,0
455,2022-08-08T07:34:00,0,0,0,0
456,2022-08-08T07:35:00,0,0,0,0
457,2022-08-08T07:36:00,0,0,0,0
458,2022-08-08T07:37:00,0,0,0,0
459,2022-08-08T07:38:00,0,0,0,0
460,2022-08-08T07:39:00,0,0,0,0
461,2022-08-08T07:40:00,0,0,0,0
462,2022-08-08T07:41:00,0,0,0,0
463,2022-08-08T07:42:00,0,0,0,0
464,2022-08-08T07:43:00,0,0,0,0
465,2022-08-08T07:44:00,0,0,0,0
466,2022-08-08T07:45:00,0,0,0,0
467,2022-08-08T07:46:00,0,0,0,0
468,2022-08-08T07:47:00,0,0,0,0
469,2022-08-08T07:48:00,0,0,0,0
470,2022-08-08T07:49:00,0,0,0,0
471,2022-08-08T07:50:00,0,0,0,0
472,2022-08-08T07:51:00,0,0,0,0
473,2022-08-08T07:52:00,0,0,0,0
474,2022-08-08T07:53:00,0,0,0,0
475,2022-08-08T07:54:00,0,0,0,0
476,2022-08-08T07:55:00,0,0,0,0
477,2022-08-08T07:56:00,0,0,0,0
478,2022-08-08T07:57:00,0,0,0,0
479,2022-08-08T07:58:00,0,0,0,0
480,2022-08-08T07:59:00,0,0,0,0
481,2022-08-08T08:00:00,0,0,0,0
482,2022-08-08T08:01:00,0,0,0,0
483,2022-08-08T08:02:00,0,0,0,0
484,2022-08-08T08:03:00,0,0,0,0
485,2022-08-08T08:04:00,0,0,0,0
486,2022-08-08T08:05:00,0,0,0,0
487,2022-08-08T08:06:00,0,0,0,0
488,2022-08-08T08:07:00,0,0,0,0
489,2022-08-08T08:08:00,0,0,0,0
490,2022-08-08T08:09:00,0,0,0,0
491,2022-08-08T08:10:00,0,0,0,0
492,2022-08-08T08:11:00,0,0,0,0
493,2022-08-08T08:12:00,0,0,0,0
494,2022-08-08T08:13:00,0,0,0,0
495,2022-08-08T08:14:00,0,0,0,0
496,2022-08-08T08:15:00,0,0,0,0
497,2022-08-08T08:16:00,0,0,0,0
498,2022-08-08T08:17:00,0,0,0,0
499,2022-08-08T08:18:00,0,0,0,0
500,2022-08-08T08:19:00,0,0,0,0
501,2022-08-08T08:20:00,0,0,0,0
502,2022-08-08T08:21:00,0,0,0,0
503,2022-08-08T08:22:00,0,0,0,0
504,2022-08-08T08:23:00,0,0,0,0
505,2022-08-08T08:24:00,0,0,0,0
506,2022-08-08T08:25:00,0,0,0,0
507,2022-08-08T08:26:00,0,0,0,0
508,2022-08-08T08:27:00,0,0,0,0
509,2022-08-08T08:28:00,0,0,0,0
510,2022-08-08T08:29:00,0,0,0,0
511,2022-08-08T08:30:00,0,0,0,0
512,2022-08-08T08:31:00,0,0,0,0
513,2022-08-08T08:32:00,0,0,0,0
514,2022-08-08T08:33:00,0,0,0,0
515,2022-08-08T08:34:00,0,0,0,0
516,2022-08-08T08:35:00,0,0,0,0
517,2022-08-08T08:36:00,0,0,0,0
518,2022-08-08T08:37:00,0,0,0,0
519,2022-08-08T08:38:00,0,0,0,0
520,2022-08-08T08:39:00,0,0,0,0
521,2022-08-08T08:40:00,0,0,0,0
522,2022-08-08T08:41:00,0,0,0,0
523,2022-08-08T08:42:00,0,0,0,0
524,2022-08-08T08:43:00,0,0,0,0
525,2022-08-08T08:44:00,0,0,0,0
526,2022-08-08T08:45:00,0,0,0,0
527,2022-08-08T08:46:00,0,0,0,0
528,2022-08-08T08:47:00,0,0,0,0
529,2022-08-08T08:48:00,0,0,0,0
530,2022-08-08T08:49:00,0,0,0,0
531,2022-08-08T08:50:00,0,0,0,0
532,2022-08-08T08:51:00,0,0,0,0
533,2022-08-08T08:52:00,0,0,0,0
534,2022-08-08T08:53:00,0,0,0,0
535,2022-08-08T08:54:00,0,0,0,0
536,2022-08-08T08:55:00,0,0,0,0
537,2022-08-08T08:56:00,0,0,0,0
538,2022-08-08T08:57:00,0,0,0,0
539,2022-08-08T08:58:00,0,0,0,0
540,2022-08-08T08:59:00,0,0,0,0
541,2022-08-08T09:00:00,0,0,0,0
542,2022-08-08T09:01:00,0,0,0,0
543,2022-08-08T09:02:00,0,0,0,0
544,2022-08-08T09:03:00,0,0,0,0
545,2022-08-08T09:04:00,0,0,0,0
546,2022-08-08T09:05:00,0,0,0,0
547,2022-08-08T09:06:00,0,0,0,0
548,2022-08-08T09:07:00,0,0,0,0
549,2022-08-08T09:08:00,0,0,0,0
550,2022-08-08T09:09:00,0,0,0,0
551,2022-08-08T09:10:00,0,0,0,0
552,2022-08-08T09:11:00,0,0,0,0
553,2022-08-08T09:12:00,0,0,0,0
554,2022-08-08T09:13:00,0,0,0,0
555,2022-08-08T09:14:00,0,0,0,0
556,2022-08-08T09:15:00,0,0,0,0
557,2022-08-08T09:16:00,0,0,0,0
558,2022-08-08T09:17:00,0,0,0,0
559,2022-08-08T09:18:00,0,0,0,0
560,2022-08-08T09:19:00,0,0,0,0
561,2022-08-08T09:20:00,0,0,0,0
562,2022-08-08T09:21:00,0,0,0,0
563,2022-08-08T09:22:00,0,0,0,0
564,2022-08-08T09:23:00,0,0,0,0
565,2022-08-08T09:24:00,0,0,0,0
566,2022-08-08T09:25:00,0,0,0,0
567,2022-08-08T09:26:00,0,0,0,0
568,2022-08-08T09:27:00,0,0,0,0
569,2022-08-08T09:28:00,0,0,0,0
570,2022-08-08T09:29:00,0,0,0,0
571,2022-08-08T09:30:00,0,0,0,0
572,2022-08-08T09:31:00,0,0,0,0
573,2022-08-08T09:32:00,0,0,0,0
574,2022-08-08T09:33:00,0,0,0,0
575,2022-08-08T09:34:00,0,0,0,0
576,2022-08-08T09:35:00,0,0,0,0
577,2022-08-08T09:36:00,0,0,0,0
578,2022-08-08T09:37:00,0,0,0,0
579,2022-08-08T09:38:00,0,0,0,0
580,2022-08-08T09:39:00,0,0,0,0
581,2022-08-08T09:40:00,0,0,0,0
582,2022-08-08T09:41:00,0,0,0,0
583,2022-08-08T09:42:00,0,0,0,0
584,2022-08-08T09:43:00,0,0,0,0
585,2022-08-08T09:44:00,0,0,0,0
586,2022-08-08T09:45:00,0,0,0,0
587,2022-08-08T09:46:00,0,0,0,0
588,2022-08-08T09:47:00,0,0,0,0
589,2022-08-08T09:48:00,0,0,0,0
590,2022-08-08T09:49:00,0,0,0,0
591,2022-08-08T09:50:00,0,0,0,0
592,2022-08-08T09:51:00,0,0,0,0
593,2022-08-08T09:52:00,0,0,0,0
594,2022-08-08T09:53:00,0,0,0,0
595,2022-08-08T09:54:00,0,0,0,0
596,2022-08-08T09:55:00,0,0,0,0
597,2022-08-08T09:56:00,0,0,0,0
598,2022-08-08T09:57:00,0,0,0,0
599,2022-08-08T09:58:00,0,0,0,0
600,2022-08-08T09:59:00,0,0,0,0
601,2022-08-08T10:00:00,0,0,0,0
602,2022-08-08T10:01:00,0,0,0,0
603,2022-08-08T10:02:00,0,0,0,0
604,2022-08-08T10:03:00,0,0,0,0
605,2022-08-08T10:04:00,0,0,0,0
606,2022-08-08T10:05:00,0,0,0,0
607,2022-08-08T10:06:00,0,0,0,0
608,2022-08-08T10:07:00,0,0,0,0
609,2022-08-08T10:08:00,0,0,0,0
610,2022-08-08T10:09:00,0,0,0,0
611,2022-08-08T10:10:00,0,0,0,0
612,2022-08-08T10:11:00,0,0,0,0
613,2022-08-08T10:12:00,0,0,0,0
614,2022-08-08T10:13:00,0,0,0,0
615,2022-08-08T10:14:00,0,0,0,0
616,2022-08-08T10:15:00,0,0,0,0
617,2022-08-08T10:16:00,0,0,0,0
618,2022-08-08T10:17:00,0,0,0,0
619,2022-08-08T10:18:00,0,0,0,0
620,2022-08-08T10:19:00,0,0,0,0
621,2022-08-08T10:20:00,0,0,0,0
622,2022-08-08T10:21:00,0,0,0,0
623,2022-08-08T10:22:00,0,0,0,0
624,2022-08-08T10:23:00,0,0,0,0
625,2022-08-08T10:24:00,0,0,0,0
626,2022-08-08T10:25:00,0,0,0,0
627,2022-08-08T10:26:00,0,0,0,0
628,2022-08-08T10:27:00,0,0,0,0
629,2022-08-08T10:28:00,0,0,0,0
630,2022-08-08T10:29:00,0,0,0,0
631,2022-08-08T10:30:00,0,0,0,0
632,2022-08-08T10:31:00,0,0,0,0
633,2022-08-08T10:32:00,0,0,0,0
634,2022-08-08T10:33:00,0,0,0,0
635,2022-08-08T10:34:00,0,0,0,0
636,2022-08-08T10:35:00,0,0,0,0
637,2022-08-08T10:36:00,0,0,0,0
638,2022-08-08T10:37:00,0,0,0,0
639,2022-08-08T10:38:00,0,0,0,0
640,2022-08-08T10:39:00,0,0,0,0
641,2022-08-08T10:40:00,0,0,0,0
642,2022-08-08T10:41:00,0,0,0,0
643,2022-08-08T10:42:00,0,0,0,0
644,2022-08-08T10:43:00,0,0,0,0
645,2022-08-08T10:44:00,0,0,0,0
646,2022-08-08T10:45:00,0,0,0,0
647,2022-08-08T10:46:00,0,0,0,0
648,2022-08-08T10:47:00,0,0,0,0
649,2022-08-08T10:48:00,0,0,0,0
650,2022-08-08T10:49:00,0,0,0,0
651,2022-08-08T10:50:00,0,0,0,0
652,2022-08-08T10:51:00,0,0,0,0
653,2022-08-08T10:52:00,0,0,0,0
654,2022-08-08T10:53:00,0,0,0,0
655,2022-08-08T10:54:00,0,0,0,0
656,2022-08-08T10:55:00,0,0,0,0
657,2022-08-08T10:56:00,0,0,0,0
658,2022-08-08T10:57:00,0,0,0,0
659,2022-08-08T10:58:00,0,0,0,0
660,2022-08-08T10:59:00,0,0,0,0
661,2022-08-08T11:00:00,0.5,0.5,0.5,0.5
662,2022-08-08T11:01:00,0.5,0.5,0.5,0.5
663,2022-08-08T11:02:00,0.5,0.5,0.5,0.5
664,2022-08-08T11:03:00,0.5,0.5,0.5,0.5
665,2022-08-08T11:04:00,0.5,0.5,0.5,0.5
666,2022-08-08T11:05:00,1,1,1,1
667,2022-08-08T11:06:00,1.5,1.5,1.5,1.5
668,2022-08-08T11:07:00,2.5,2.5,2.5,2.5
669,2022-08-08T11:08:00,3.5,3.5,3.5,3.5
670,2022-08-08T11:09:00,3.5,3.5,3.5,3.5
671,2022-08-08T11:10:00,4,4.5,4.5,4.5
672,2022-08-08T11:11:00,4.5,5,5,5
673,2022-08-08T11:12:00,5.5,6,6,6
674,2022-08-08T11:13:00,7,7.5,7.5,7.5
675,2022-08-08T11:14:00,8.5,9,9,9
676,2022-08-08T11:15:00,10,11,11,11
677,2022-08-08T11:16:00,11,12.5,12.5,12.5
678,2022-08-08T11:17:00,11.5,14,14,14
679,2022-08-08T11:18:00,12,15.5,15.5,15.5
680,2022-08-08T11:19:00,13,16.5,16.5,16.5
681,2022-08-08T11:20:00,12.5,17,17,17
682,2022-08-08T11:21:00,12.5,17.5,17.5,17.5
683,2022-08-08T11:22:00,12,18,18,18
684,2022-08-08T11:23:00,11,18.5,18.5,18.5
685,2022-08-08T11:24:00,9.5,18.5,18.5,18.5
686,2022-08-08T11:25:00,7.5,18.5,18.5,18.5
687,2022-08-08T11:26:00,6,18.5,18.5,18.5
688,2022-08-08T11:27:00,4.5,18.5,18.5,18.5
689,2022-08-08T11:28:00,3,18.5,18.5,18.5
690,2022-08-08T11:29:00,2.5,19,19,19
691,2022-08-08T11:30:00,2,19,19,19
692,2022-08-08T11:31:00,1.5,19,19,19
693,2022-08-08T11:32:00,1,19,19,19
694,2022-08-08T11:33:00,0.5,19,19,19
695,2022-08-08T11:34:00,0.5,19,19,19
696,2022-08-08T11:35:00,0.5,19,19,19
697,2022-08-08T11:36:00,0.5,19,19,19
698,2022-08-08T11:37:00,0.5,19,19,19
699,2022-08-08T11:38:00,0.5,19,19,19
700,2022-08-08T11:39:00,0,19,19,19
701,2022-08-08T11:40:00,0,19,19,19
702,2022-08-08T11:41:00,0,19,19,19
703,2022-08-08T11:42:00,0,19,19,19
704,2022-08-08T11:43:00,0,19,19,19
705,2022-08-08T11:44:00,0,19,19,19
706,2022-08-08T11:45:00,0,19,19,19
707,2022-08-08T11:46:00,0,19,19,19
708,2022-08-08T11:47:00,0,19,19,19
709,2022-08-08T11:48:00,0,19,19,19
710,2022-08-08T11:49:00,0,19,19,19
711,2022-08-08T11:50:00,0,19,19,19
712,2022-08-08T11:51:00,0,19,19,19
713,2022-08-08T11:52:00,0,19,19,19
714,2022-08-08T11:53:00,0,19,19,19
715,2022-08-08T11:54:00,0,19,19,19
716,2022-08-08T11:55:00,0,19,19,19
717,2022-08-08T11:56:00,0,19,19,19
718,2022-08-08T11:57:00,0,19,19,19
719,2022-08-08T11:58:00,0,19,19,19
720,2022-08-08T11:59:00,0,19,19,19
721,2022-08-08T12:00:00,0,18.5,19,19
722,2022-08-08T12:01:00,0,18.5,19,19
723,2022-08-08T12:02:00,0,18.5,19,19
724,2022-08-08T12:03:00,0,18.5,19,19
725,2022-08-08T12:04:00,0,18.5,19,19
726,2022-08-08T12:05:00,0,18,19,19
727,2022-08-08T12:06:00,0,17.5,19,19
728,2022-08-08T12:07:00,0,16.5,19,19
729,2022-08-08T12:08:00,0,15.5,19,19
730,2022-08-08T12:09:00,0,15.5,19,19
731,2022-08-08T12:10:00,0,14.5,19,19
732,2022-08-08T12:11:00,0,14,19,19
733,2022-08-08T12:12:00,0,13,19,19
734,2022-08-08T12:13:00,0,11.5,19,19
735,2022-08-08T12:14:00,0,10,19,19
736,2022-08-08T12:15:00,0,8,19,19
737,2022-08-08T12:16:00,0,6.5,19,19
738,2022-08-08T12:17:00,0,5,19,19
739,2022-08-08T12:18:00,0,3.5,19,19